Lake Apopka Weather Center

Moon Phase Calendar



Lake Apopka Water Level
Online Cameras

 


      

Current Conditions in Montverde
5/26/2022 6:28:34 AM

75°F
Feels Like 76
Clouds
Humidity
80%
Pressure
30.12"
Wind
1 mph (W)
Dew Point
69°F
UV Index
0/10 (Low)
Visibility
6 mi

Hourly Forecast

Date & Time Thu, May 26
6:00 AM
Thu, May 26
7:00 AM
Thu, May 26
8:00 AM
Thu, May 26
9:00 AM
Thu, May 26
10:00 AM
Thu, May 26
11:00 AM
Thu, May 26
12:00 PM
Thu, May 26
1:00 PM
Thu, May 26
2:00 PM
Thu, May 26
3:00 PM
Thu, May 26
4:00 PM
Thu, May 26
5:00 PM
Thu, May 26
6:00 PM
Thu, May 26
7:00 PM
Thu, May 26
8:00 PM
Thu, May 26
9:00 PM
Thu, May 26
10:00 PM
Thu, May 26
11:00 PM
Fri, May 27
12:00 AM
Fri, May 27
1:00 AM
Fri, May 27
2:00 AM
Fri, May 27
3:00 AM
Fri, May 27
4:00 AM
Fri, May 27
5:00 AM
Fri, May 27
6:00 AM
Fri, May 27
7:00 AM
Fri, May 27
8:00 AM
Fri, May 27
9:00 AM
Fri, May 27
10:00 AM
Fri, May 27
11:00 AM
Fri, May 27
12:00 PM
Fri, May 27
1:00 PM
Fri, May 27
2:00 PM
Fri, May 27
3:00 PM
Fri, May 27
4:00 PM
Fri, May 27
5:00 PM
Fri, May 27
6:00 PM
Fri, May 27
7:00 PM
Fri, May 27
8:00 PM
Fri, May 27
9:00 PM
Fri, May 27
10:00 PM
Fri, May 27
11:00 PM
Sat, May 28
12:00 AM
Sat, May 28
1:00 AM
Sat, May 28
2:00 AM
Sat, May 28
3:00 AM
Sat, May 28
4:00 AM
Sat, May 28
5:00 AM
Condition
Clouds

Clouds

Clouds

Clouds

Clouds

Clouds

Clouds

Clouds

Clouds

Clouds

Clouds

Clouds

Clouds

Clouds

Clouds

Clouds

Clouds

Clouds

Clouds

Clouds

Clouds

Clouds

Clouds

Clouds

Clouds

Clouds

Clouds

Clouds

Clouds

Clouds

Rain

Clouds

Clouds

Clouds

Clouds

Clouds

Clouds

Clouds

Clouds

Clouds

Rain

Rain

Rain

Rain

Clear

Clear

Clear

Clear
Temperature 75°F75°F76°F77°F81°F85°F88°F90°F92°F93°F94°F94°F93°F88°F84°F82°F81°F79°F78°F78°F77°F77°F76°F76°F75°F75°F78°F81°F84°F86°F89°F91°F93°F94°F93°F90°F88°F87°F84°F81°F78°F76°F75°F75°F74°F73°F73°F73°F
Feels Like 76°F76°F77°F78°F83°F86°F88°F90°F91°F92°F93°F93°F93°F89°F86°F84°F83°F79°F79°F79°F78°F78°F77°F77°F76°F76°F78°F84°F87°F89°F91°F93°F94°F94°F93°F91°F89°F89°F85°F83°F79°F77°F76°F76°F75°F74°F74°F74°F
Cloudiness 83%83%84%93%89%91%93%95%95%100%99%99%97%97%98%100%100%100%100%100%100%100%100%100%100%95%84%14%13%17%25%32%33%42%57%70%76%75%68%46%26%17%13%10%9%0%0%0%
Visibility 6 mi6 mi6 mi6 mi6 mi6 mi6 mi6 mi6 mi6 mi6 mi6 mi6 mi6 mi6 mi6 mi6 mi6 mi6 mi6 mi6 mi6 mi6 mi6 mi6 mi6 mi6 mi6 mi6 mi6 mi6 mi6 mi6 mi6 mi6 mi6 mi6 mi6 mi6 mi6 mi6 mi6 mi6 mi6 mi6 mi6 mi6 mi6 mi
Precipitation 0%0%0%0%0%0%0%0%0%0%0%0%0%0%0%14%19%23%22%14%14%0%0%0%0%0%0%28%37%60%64%60%56%3%3%1%3%3%11%20%46%62%74%77%72%5%5%3%
Humidity 80%82%80%74%62%49%42%37%34%32%31%31%34%44%53%58%63%67%70%73%74%75%76%77%78%80%74%67%59%52%47%42%36%33%34%40%45%46%53%60%70%76%80%83%84%86%87%87%
Dew Point 69°F69°F69°F69°F67°F64°F62°F60°F60°F59°F59°F59°F60°F64°F65°F66°F67°F67°F68°F68°F68°F68°F68°F68°F68°F68°F69°F69°F68°F67°F66°F65°F62°F60°F60°F62°F64°F64°F65°F66°F67°F68°F69°F69°F69°F69°F69°F68°F
Pressure 30.12"30.12"30.12"30.12"30.12"30.09"30.09"30.06"30.06"30.03"30"29.97"29.97"29.97"30"30"30.03"30.03"30.03"30"30"30"30"30"30"30"30.03"30.03"30.03"30"30"29.97"29.94"29.91"29.88"29.88"29.88"29.88"29.91"29.91"29.94"29.97"29.94"29.94"29.94"29.91"29.91"29.91"
Wind Speed 8.5 mph7.5 mph9.6 mph11.6 mph12 mph11.8 mph11.3 mph10 mph9 mph8.2 mph7.9 mph7 mph6.2 mph8.7 mph11.6 mph9.3 mph9.5 mph10.6 mph11.6 mph10.2 mph7.9 mph6.6 mph6.4 mph6.5 mph6.1 mph6.1 mph7.9 mph9.4 mph10.2 mph10.2 mph9.7 mph9.3 mph10 mph9.7 mph8.1 mph8.2 mph8.6 mph10 mph11 mph12.2 mph7.9 mph6.2 mph6 mph6.5 mph6.2 mph5.3 mph4.3 mph3.6 mph
Wind
Direction
125°
SE
128°
SE
136°
SE
141°
SE
144°
SE
149°
SSE
153°
SSE
160°
SSE
167°
SSE
167°
SSE
165°
SSE
168°
SSE
152°
SSE
122°
ESE
118°
ESE
130°
SE
134°
SE
144°
SE
157°
SSE
162°
SSE
170°
S
176°
S
173°
S
179°
S
177°
S
182°
S
189°
S
194°
SSW
200°
SSW
201°
SSW
202°
SSW
200°
SSW
204°
SSW
211°
SSW
231°
SW
271°
W
279°
W
267°
W
272°
W
274°
W
269°
W
253°
WSW
245°
WSW
250°
WSW
261°
W
262°
W
257°
WSW
257°
WSW

Daily Forecast

Date High Low Precip. Humidity
Today
May 26

Rain
94 °F
75 °F
50%
37%
Friday
May 27

Rain
94 °F
75 °F
64%
42%
Saturday
May 28

Rain
93 °F
73 °F
72%
31%
Sunday
May 29

Rain
93 °F
73 °F
73%
37%
Monday
May 30

Rain
90 °F
72 °F
54%
44%
Tuesday
May 31

Clouds
91 °F
73 °F
30%
40%
Wednesday
Jun 1

Rain
89 °F
71 °F
42%
40%
Thursday
Jun 2

Rain
86 °F
71 °F
49%
44%
Friday
Jun 3

Clear
93 °F
72 °F
2%
36%
Saturday
Jun 4

Rain
96 °F
74 °F
96%
32%
Sunday
Jun 5

Rain
95 °F
76 °F
80%
37%
Monday
Jun 6

Clear
94 °F
74 °F
66%
35%
Tuesday
Jun 7

Clouds
93 °F
75 °F
0%
34%
Wednesday
Jun 8

Clouds
94 °F
71 °F
0%
26%
Thursday
Jun 9

Clouds
95 °F
71 °F
0%
33%
Friday
Jun 10

Clouds
97 °F
75 °F
0%
33%

Temperature 8-14 Day Outlook



Precipitation 8-14 Day Outlook




Quick Links
Lake Apopka News
Lake Apopka Photos
Lake Apopka Videos




About Us
Contact Us
Site Map
Search Site
Advertise With Us
   
Apopka.USLakes.info
THE LAKE APOPKA WEBSITE

Copyright 2022, Lakes Online
Privacy    |    Legal